Regional Weather Roundup
Issued by NWS Wakefield, VA

Home | Current Version | Previous Version | Text Only | Print | Product List | Glossary On
Versions: 1 2 3 4 5 6 7 8 9 10 11 12 13 14 15 16 17 18 19 20 21 22 23 24 25 26 27 28 29 30 31 32 33 34 35 36 37 38 39 40 41 42 43 44 45 46 47 48 49 50
000
ASUS41 KAKQ 221210
RWRAKQ

REGIONAL WEATHER ROUNDUP
NATIONAL WEATHER SERVICE WAKEFIELD VA
800 AM EDT FRI AUG 22 2014

Note: "fair" indicates few or no clouds below 12,000 feet with no
significant weather and/or obstructions to visibility. * = Denotes
station may not report precipitation (e.g., rain,snow,etc.),
thunder or fog.

VAZ042-051-052>054-056-221300-
NORTHERN VIRGINIA

CITY           SKY/WX    TMP DP  RH WIND       PRES   REMARKS
WASH NATIONAL  CLOUDY    76  66  71 N8        30.01R
DULLES         PTSUNNY   71  66  84 N3        30.01R
FORT BELVOIR   MOSUNNY   71  69  92 NW2       30.01R
QUANTICO       MOSUNNY   75  66  73 N5        30.01R
FREDERICKSBRG* MOSUNNY   74  71  89 CALM      30.00R
STAFFORD*      MOSUNNY   70  70 100 CALM      30.05R FOG
WARRENTON      MOSUNNY   71  71 100 CALM      30.00S
CULPEPER*      PTSUNNY  N/A N/A N/A CALM      30.01S
MANASSAS*      MOSUNNY   72  72 100 CALM      30.01R
LEESBURG*      CLOUDY    72  70  94 CALM      30.02S
WINCHESTER     PTSUNNY   70  68  94 CALM      30.02S
$$

VAZ048-049-060>072-079>083-221300-
CENTRAL AND SOUTH CENTRAL VIRGINIA...AND NORTH CENTRAL NORTH CAROLINA

CITY           SKY/WX    TMP DP  RH WIND       PRES   REMARKS
RICHMOND       PTSUNNY   76  69  79 VRB3      30.00R
CHESTERFIELD*  MOSUNNY  N/A N/A N/A CALM      30.01S
HANOVER        PTSUNNY   72  69  90 NW3       30.02R
TAPPAHANNOCK*  CLOUDY    73  71  91 CALM      30.00S
CHARLOTTSVILLE CLOUDY    71  68  90 SW3       30.02R
ORANGE*        PTSUNNY   72  70  94 CALM      30.02R
LOUISA*        PTSUNNY   72  72 100 CALM      30.00R
FARMVILLE*     PTSUNNY   72  72 100 CALM      30.01R
SOUTH HILL*    PTSUNNY   75  73  94 CALM      30.06S
ROANOKE RAPIDS CLOUDY    73  72  94 CALM      30.01R
RALEIGH        PTSUNNY   76  71  85 CALM      30.03R
$$

VAZ088>098-221300-
SOUTHEAST VIRGINIA

CITY           SKY/WX    TMP DP  RH WIND       PRES   REMARKS
NORFOLK        CLOUDY    78  71  79 W5        29.97R
VIRGINIA BEACH PTSUNNY   77  72  84 W7        29.96R
NORFOLK NAVAL  CLOUDY    79  72  79 W8        29.99R
WEST POINT*    CLOUDY    77  74  89 CALM      30.01R
NEWPORT NEWS   CLOUDY    80  73  79 W6        29.99R
LANGLEY AFB    CLOUDY    77  77 100 W5        29.98R
FORT EUSTIS    PTSUNNY   76  76 100 W6        29.97R
WILLIAMSBURG*  PTSUNNY   79  73  83 NW6       30.00R
FRANKLIN*      PTSUNNY   73  72  94 NW5       29.99S
WAKEFIELD      MOSUNNY   75  70  84 W3        30.00R
$$

VAZ020-022-025-037-045-221300-
WESTERN AND SOUTHWEST VIRGINIA

CITY           SKY/WX    TMP DP  RH WIND       PRES   REMARKS
STAUNTON*      RAIN      67  65  93 CALM      30.07S
HOT SPRINGS VA LGT RAIN  62  62 100 W12       30.18S
LYNCHBURG        N/A    N/A N/A N/A CALM      30.07R
DANVILLE       PTSUNNY   71  69  93 CALM      30.04R
MARTINSVILLE   MOSUNNY   70  70  99 CALM      30.08R
ROANOKE        LGT RAIN  70  66  87 NE8       30.09R
BLACKSBURG     MOSUNNY   68  68 100 CALM      30.14R FOG
DUBLIN*        MOSUNNY   70  70 100 CALM      30.14R
MARION*        CLOUDY    70  69  96 W10       30.19R FOG
HILLSVILLE*    PTSUNNY   69  67  93 W5        30.16R
RICHLANDS*     MOSUNNY   72  69  91 W8        30.18R
WISE*          CLOUDY    72  70  94 SW6       30.19R
ABINGDON*      MOSUNNY   69  69 100 CALM      30.16S FOG
$$

MDZ021>025-VAZ099-100-221300-
SOUTHERN MARYLAND AND THE DELMARVA PENINSULA

CITY           SKY/WX    TMP DP  RH WIND       PRES   REMARKS
PATUXENT RIVER PTSUNNY   75  67  76 NW12      29.98R
BAY BRIDGE APT   N/A     73  72  94 E7        29.98R
LEONARDTOWN    MOSUNNY   73  64  73 N3        29.99S
DOVER          SUNNY     74  74 100 E8        29.96R
GEORGETOWN     CLOUDY    73  70  90 E10       29.98R
EASTON         CLOUDY    73  73 100 CALM      30.01R FOG
CAMBRIDGE      SUNNY     77  72  83 N6        29.97R
SALISBURY      MOSUNNY   75  70  84 CALM      29.97R
OCEAN CITY     MOSUNNY  N/A N/A N/A CALM      29.97R
WALLOPS ISLAND PTSUNNY   77  73  87 CALM      29.97R
ACCOMACK*      PTSUNNY   73  72  94 W5        29.96R
$$

NCZ012>017-030>032-221300-
EASTERN NORTH CAROLINA

CITY           SKY/WX    TMP DP  RH WIND       PRES   REMARKS
ELIZABETH CITY CLOUDY    75  73  93 CALM      29.98R
AHOSKIE*       SUNNY     73  71  93 CALM      30.01R
EDENTON*       CLOUDY    74  73  94 CALM      29.99R
CURRITUCK*     CLOUDY    74  71  89 W5        29.99R
KILL DEVIL HLS CLOUDY    73  71  95 CALM      29.96F
MANTEO         CLOUDY    75  72  88 CALM      29.98S
CAPE HATTERAS  PTSUNNY   79  76  90 NW5       29.97S
GOLDSBORO      MOSUNNY   76  75  98 W5        30.00R
WASHINGTON     PTSUNNY   75  73  91 CALM      30.00S
GREENVILLE     MOSUNNY   77  75  94 W3        30.02S FOG
NEW BERN       MOSUNNY   79  73  82 CALM      30.01R
WILMINGTON     PTSUNNY   78  75  90 W5        30.01R
$$

VAZ048-221300-
ELSEWHERE

CITY           SKY/WX    TMP DP  RH WIND       PRES   REMARKS
HARRISBURG PA  CLOUDY    70  67  90 CALM      30.00R FOG
BALTIMORE      MOSUNNY   72  67  84 W5        29.99R
ANNAPOLIS      MOSUNNY   74  69  85 NW7       29.98R
ANDREWS AFB    PTSUNNY   73  67  82 NW6       30.01R
WILMINGTON DE  CLOUDY    70  66  87 NE7       30.01R
PHILADELPHIA   CLOUDY    69  65  86 E8        30.01R
WILDWOOD NJ*   MOSUNNY   73  68  83 E8        29.98S
ATLANTIC CITY  CLOUDY    70  69  97 E7        29.99R
HENDERSON NC   MOSUNNY   73  70  91 CALM      30.03S
GREENSBORO     PTSUNNY   73  68  84 CALM      30.06R
ROCKY MOUNT    MOSUNNY   76  72  87 W5        30.01R
FAYETTEVILLE   SUNNY     77  71  82 CALM      30.03R
CHARLOTTE      CLOUDY    76  71  85 CALM      30.06R
$$

VAZ100-221300-
MARINE

STATION/POSITION TIME  TEMP    WIND        PRES    WAVE   SWELL
                       AIR SEA DIR/SP/G            HT/PER HT/PER
                 (UTC) (F)     (DEG/KT/KT) (MB)    (FT/S) (FT/S)
44066 TX TWR #4  1200   70 72   40/ 16/ 17 1015.7R   3/ 7   2/ 7
CAPE MAY NJ      1200   73 80  100/ 10/ 15 1014.1S
LEWES DE         1200   73 74  110/  6/  8 1014.3S
15NM E FENWICK I 1200   73 75              1014.4R   3/ 6
OCEAN-CITY-INLET 1200   74 76  340/  1/  2 1014.2R
WACHAPREAGUE VA  1200   75 81  270/  2/  4 1014.5R
THOMAS POINT MD  1200   73 79  340/  9/ 11 1015.7R
GOOSES REEF MD   1200   76     360/ 10/ 12 1015.5R
COVE POINT MD    1200   74     340/ 12/ 14 1014.9R
SOLOMONS ISLAND  1200      80                N/A
BISHOPS HEAD MD  1200   74 80  350/  4/  7 1014.4R
PINEY POINT MD   1200          360/ 11/ 12   N/A
POTOMAC MD       1200   76     350/  8/ 10 1014.3S
CAMBRIDGE MD     1200   75 78  340/  5/  7 1014.6R
LEWISETTA VA     1200   77 80  350/  7/  9 1014.9R
RAPPAHANNOCK LGT 1200          330/ 11/ 13 1015.2R
STINGRAY PT      1200   78     340/ 10/ 12 1015.6R
YORK RVR RNG VA  1200   78     310/  8/  9 1014.7R
YORKTOWN VA      1200   76 81  270/  6/  6 1015.0R
JAMESTOWN VA     1200   74     300/  6/  8   N/A
DOMINION TERM VA 1200   77     300/ 11/ 12 1015.2R
KIPTOPEKE VA     1200      82  360/  7/  8   N/A
CHES BAY BRIDGE  1200   77 78  250/ 12/ 13 1014.4R
CAPE HENRY VA    1200   77     260/  8/ 11 1013.6R
CHESAPEAKE LGHT  1100   78     200/ 10/ 10 1014.7F
WILLOUBY STN VA  1200   77     310/  9/ 10 1014.0R
S CRANEY ISL VA  1200          260/  5/  8 1014.9R
CAPE HENRY BUOY  1200      79                N/A     2/ 6
1ST LANDING BUOY 1200   78     280/ 12/ 14 1014.4R
CAPE CHARLES BUO 1200      78                N/A     2/ 6   2/ 6
OFFSHORE WE BUOY 1200      78                N/A     2/ 9   2/ 9
64NM E OF VA BCH 1200   77 78  190/  6/  6 1013.8R   2/ 7   2/ 7
DUCK PIER NC     1200   76 78  280/  4/  5 1014.2S
44056 DUCK FRF   1200                        N/A     2/ 7
OREGON INLET NC  1200   76 83  340/  5/  9 1014.9F
HATTERAS NC      1200   81 82  330/  8/ 10 1015.4F
DIAMOND SHLS NC  1200   82     260/ 10/ 12 1014.9R   2/ 9   2/ 9
CAPE LOOKOUT NC  1200   82     260/  8/ 10 1015.7R
$$


USA.gov is the U.S. government's official web portal to all federal, state and local government web resources and services.